EW3857 Weather Reports


Display with metric or nautical units.
time (UTC)temp
F
wind
direction
speed
MPH
gust
MPH
rain 1hr
in
rain 24hr
in
rain mn
in
humidity
%
barometer
mb
20260902112841 75 191 0.0 0.0 0.00 0.00 0.00 99 1021.9
20260902112338 75 187 0.0 0.0 0.00 0.00 0.00 99 1021.6
20260902111833 75 189 0.0 0.0 0.00 0.00 0.00 99 1021.7
20260902111329 75 186 0.0 0.0 0.00 0.00 0.00 99 1021.4
20260902110824 75 184 0.0 0.0 0.00 0.00 0.00 99 1021.3
20260902110320 75 185 0.0 0.0 0.00 0.00 0.00 99 1021.4
20260902105820 75 189 0.0 0.0 0.00 0.00 0.00 99 1021.5
20260902105315 75 186 0.0 0.0 0.00 0.00 0.00 99 1021.4
20260902104810 75 179 0.0 0.0 0.00 0.00 0.00 99 1021.4
20260902104306 75 185 0.0 0.0 0.00 0.00 0.00 99 1021.1
20260902103806 75 186 0.0 0.0 0.00 0.00 0.00 99 1021.1
20260902103301 75 184 0.0 0.0 0.00 0.00 0.00 99 1021.3
20260902102756 75 181 0.0 0.0 0.00 0.00 0.00 99 1021.2
20260902102254 75 184 0.0 0.0 0.00 0.00 0.00 99 1021.2
20260902101749 75 181 0.0 0.0 0.00 0.00 0.00 99 1021.2
20260902101244 75 187 0.0 0.0 0.00 0.00 0.00 99 1021.1
20260902100743 75 179 0.0 0.0 0.00 0.00 0.00 99 1021.1
20260902100237 75 180 0.0 0.0 0.00 0.00 0.00 99 1021.1
20260902095732 76 179 0.0 0.0 0.00 0.00 0.00 99 1020.9
20260902095231 76 177 0.0 0.0 0.00 0.00 0.00 99 1021.1
20260902094721 75 178 0.0 0.0 0.00 0.00 0.00 99 1020.8
20260902094217 75 178 0.0 0.0 0.00 0.00 0.00 99 1020.9
20260902093710 75 177 0.0 0.0 0.00 0.00 0.00 99 1020.6
20260902093206 75 181 0.0 0.0 0.00 0.00 0.00 99 1020.7
20260902092700 75 178 0.0 0.0 0.00 0.00 0.00 99 1020.8
20260902092155 75 178 0.0 0.0 0.00 0.00 0.00 99 1020.6
20260902091654 75 178 0.0 0.0 0.00 0.00 0.00 99 1020.7
20260902091151 75 178 0.0 0.0 0.00 0.00 0.00 99 1020.5
20260902090647 75 182 0.0 0.0 0.00 0.00 0.00 99 1020.6
20260902090146 75 176 0.0 0.0 0.00 0.00 0.00 99 1020.4
20260902085642 75 177 0.0 0.0 0.00 0.00 0.00 99 1020.5
20260902085141 75 176 0.0 0.0 0.00 0.00 0.00 99 1020.4
20260902084638 75 176 0.0 0.0 0.00 0.00 0.00 99 1020.4
20260902084134 75 176 0.0 0.0 0.00 0.00 0.00 99 1020.3
20260902083628 75 176 0.0 0.0 0.00 0.00 0.00 99 1020.2
20260902083127 75 176 0.0 0.0 0.00 0.00 0.00 99 1020.3
20260902082623 75 175 0.0 0.0 0.00 0.00 0.00 99 1020.0
20260902082120 75 176 0.0 0.0 0.00 0.00 0.00 99 1020.4
20260902081616 75 176 0.0 0.0 0.00 0.00 0.00 99 1020.1
20260902081111 75 176 0.0 0.0 0.00 0.00 0.00 99 1020.3
20260902080606 75 176 0.0 0.0 0.00 0.00 0.00 99 1020.3
20260902075602 75 176 0.0 0.0 0.00 0.00 0.00 99 1020.1
20260902075058 75 176 0.0 0.0 0.00 0.00 0.00 99 1020.2
20260902074553 75 175 0.0 0.0 0.00 0.00 0.00 99 1019.8
20260902074048 75 176 0.0 0.0 0.00 0.00 0.00 99 1020.0
20260902073544 75 177 0.0 0.0 0.00 0.00 0.00 99 1019.9
20260902073040 75 176 0.0 0.0 0.00 0.00 0.00 99 1020.1
20260902072535 75 177 0.0 0.0 0.00 0.00 0.00 99 1020.1
20260902072032 75 177 0.0 0.0 0.00 0.00 0.00 99 1020.1
20260902071531 75 176 0.0 0.0 0.00 0.00 0.00 99 1020.1
20260902071028 75 176 0.0 0.0 0.00 0.00 0.00 99 1020.1
20260902070523 75 175 0.0 0.0 0.00 0.00 0.00 99 1020.3
20260902070017 75 176 0.0 0.0 0.00 0.00 0.00 99 1020.4
20260902065511 75 175 0.0 0.0 0.00 0.00 0.00 99 1020.5
20260902065007 76 177 0.0 0.0 0.00 0.00 0.00 99 1020.4
20260902064502 75 176 0.0 0.0 0.00 0.00 0.00 99 1020.2
20260902063958 76 175 0.0 0.0 0.00 0.00 0.00 98 1020.4
20260902063457 76 176 0.0 0.0 0.00 0.00 0.00 98 1020.2
20260902062953 76 177 0.0 0.0 0.00 0.00 0.00 98 1020.4
20260902062451 76 178 0.0 0.0 0.00 0.00 0.00 98 1020.3
20260902061947 76 176 0.0 0.0 0.00 0.00 0.00 98 1020.4
20260902061442 75 176 0.0 0.0 0.00 0.00 0.00 98 1020.4
20260902060938 76 177 0.0 0.0 0.00 0.00 0.00 98 1020.4
20260902060434 75 176 0.0 0.0 0.00 0.00 0.00 98 1020.5
20260902055930 76 175 0.0 0.0 0.00 0.00 0.00 98 1020.6
20260902055425 75 175 0.0 0.0 0.00 0.00 0.00 98 1020.6
20260902054920 75 176 0.0 0.0 0.00 0.00 0.00 98 1020.4
20260902054415 75 176 0.0 0.0 0.00 0.00 0.00 98 1020.2
20260902053911 75 175 0.0 0.0 0.00 0.00 0.00 97 1020.3
20260902053406 76 177 0.0 0.0 0.00 0.00 0.00 97 1020.2
20260902052905 76 175 0.0 0.0 0.00 0.00 0.00 97 1020.3
20260902052400 76 175 0.0 0.0 0.00 0.00 0.00 97 1020.4
20260902051855 76 175 0.0 0.0 0.00 0.00 0.00 97 1020.4
20260902051355 76 176 0.0 0.0 0.00 0.00 0.00 97 1020.6
20260902050849 75 176 0.0 0.0 0.00 0.00 0.00 97 1020.5
20260902050348 76 174 0.0 0.0 0.00 0.00 0.00 96 1020.4
20260902045844 76 175 0.0 0.0 0.00 0.00 0.00 96 1020.5
20260902045340 76 175 0.0 0.0 0.00 0.00 0.00 96 1020.3
20260902044837 76 175 0.0 0.0 0.00 0.00 0.00 96 1020.4
20260902044332 76 175 0.0 0.0 0.00 0.00 0.00 95 1020.4
20260902043832 76 175 0.0 0.0 0.00 0.00 0.00 95 1020.5
20260902043327 76 176 0.0 0.0 0.00 0.00 0.00 95 1020.4
20260902042827 76 175 0.0 0.0 0.00 0.00 0.00 95 1020.7
20260902042321 76 175 0.0 0.0 0.00 0.00 0.00 94 1020.7
20260902041817 76 176 0.0 0.0 0.00 0.00 0.00 94 1020.7
20260902041316 76 176 0.0 0.0 0.00 0.00 0.00 94 1020.6
20260902040815 76 175 0.0 0.0 0.00 0.00 0.00 94 1020.7
20260902040311 76 177 0.0 0.0 0.00 0.00 0.00 94 1020.9
20260902035810 76 177 0.0 0.0 0.00 0.00 0.00 93 1020.7
20260902035306 76 179 0.0 0.0 0.00 0.00 0.00 93 1020.5
20260902034804 76 176 0.0 0.0 0.00 0.00 0.00 93 1020.8
20260902034300 76 175 0.0 0.0 0.00 0.00 0.00 92 1020.8
20260902033757 76 175 0.0 0.0 0.00 0.00 0.00 92 1020.7
20260902033253 76 174 0.0 0.0 0.00 0.00 0.00 92 1020.6
20260902032751 76 176 0.0 0.0 0.00 0.00 0.00 91 1020.6
20260902032247 76 175 0.0 0.0 0.00 0.00 0.00 91 1020.6
20260902031746 76 175 0.0 0.0 0.00 0.00 0.00 91 1020.8
20260902031242 76 174 0.0 0.0 0.00 0.00 0.00 91 1020.7
20260902030737 76 175 0.0 0.0 0.00 0.00 0.00 90 1020.7
20260902030232 76 174 0.0 0.0 0.00 0.00 0.00 90 1020.7
20260902025731 76 176 0.0 0.0 0.00 0.00 0.00 90 1020.7
20260902025226 76 176 0.0 0.0 0.00 0.00 0.00 90 1020.7
20260902024721 77 175 0.0 0.0 0.00 0.00 0.00 89 1020.4
20260902024216 77 174 0.0 0.0 0.00 0.00 0.00 89 1020.7
20260902023712 77 174 0.0 0.0 0.00 0.00 0.00 89 1020.6
20260902023207 77 175 0.0 0.0 0.00 0.00 0.00 89 1020.7
20260902022706 77 176 0.0 0.0 0.00 0.00 0.00 89 1020.4
20260902022202 77 177 0.0 0.0 0.00 0.00 0.00 88 1020.5
20260902021657 77 176 0.0 0.0 0.00 0.00 0.00 88 1020.4
20260902021152 77 176 0.0 0.0 0.00 0.00 0.00 87 1020.3
20260902020648 77 175 0.0 0.0 0.00 0.00 0.00 87 1020.3
20260902020144 78 176 0.0 0.0 0.00 0.00 0.00 87 1020.4
20260902015639 78 176 0.0 0.0 0.00 0.00 0.00 87 1020.4
20260902015136 78 177 0.0 0.0 0.00 0.00 0.00 86 1020.4
20260902014631 78 178 0.0 0.0 0.00 0.00 0.00 87 1020.1
20260902014127 78 176 0.0 0.0 0.00 0.00 0.00 86 1020.3
20260902013626 78 176 0.0 0.0 0.00 0.00 0.00 86 1020.2
20260902013122 78 176 0.0 0.0 0.00 0.00 0.00 86 1020.0
20260902012617 78 176 0.0 0.0 0.00 0.00 0.00 86 1020.2
20260902012112 79 176 0.0 0.0 0.00 0.00 0.00 86 1019.9
20260902011607 79 175 0.0 0.0 0.00 0.00 0.00 86 1019.9
20260902011106 79 176 0.0 0.0 0.00 0.00 0.00 85 1019.8
20260902010601 79 176 0.0 0.0 0.00 0.00 0.00 85 1019.7
20260902010057 79 175 0.0 0.0 0.00 0.00 0.00 85 1019.9
20260902005554 79 174 0.0 0.0 0.00 0.00 0.00 85 1019.9
20260902005051 79 179 0.0 0.0 0.00 0.00 0.00 86 1019.9
20260902004550 80 178 0.0 0.0 0.00 0.00 0.00 86 1019.8
20260902004045 80 178 0.0 0.0 0.00 0.00 0.00 85 1019.7
20260902003541 81 178 0.0 0.0 0.00 0.00 0.00 82 1019.7
20260902003036 81 179 0.0 0.0 0.00 0.00 0.00 80 1019.7
20260902002532 81 179 0.0 0.0 0.00 0.00 0.00 79 1019.6
20260902002027 82 181 0.0 0.0 0.00 0.00 0.00 78 1020.0
20260902001521 82 181 0.0 0.0 0.00 0.00 0.00 77 1019.7
20260902001016 82 181 0.0 0.0 0.00 0.00 0.00 77 1019.9
20260902000511 82 180 0.0 0.0 0.00 0.00 0.00 77 1019.7
20260902000006 83 186 0.0 0.0 0.00 0.00 0.00 78 1019.8
20260901235501 83 179 0.0 0.0 0.00 0.00 0.00 78 1019.8
20260901234955 84 179 0.0 0.0 0.00 0.00 0.00 77 1020.0
20260901234449 84 179 0.0 0.0 0.00 0.00 0.00 77 1019.9
20260901233944 85 180 0.0 0.0 0.00 0.00 0.00 76 1020.0
20260901233444 85 179 0.0 0.0 0.00 0.00 0.00 76 1020.0
20260901232941 86 182 0.0 0.0 0.00 0.00 0.00 75 1020.0
20260901232436 87 181 0.0 0.0 0.00 0.00 0.00 75 1020.1
20260901231931 87 180 0.0 0.0 0.00 0.00 0.00 73 1020.0
20260901231428 87 180 0.0 0.0 0.00 0.00 0.00 73 1020.1
20260901230925 88 179 0.0 0.0 0.00 0.00 0.00 74 1020.0
20260901230423 88 179 0.0 0.0 0.00 0.00 0.00 73 1020.1
20260901225918 89 178 0.0 0.0 0.00 0.00 0.00 76 1019.8
20260901225413 89 178 0.0 0.0 0.00 0.00 0.00 74 1019.6
20260901224908 89 177 0.0 0.0 0.00 0.00 0.00 72 1019.7
20260901224404 90 177 0.0 0.0 0.00 0.00 0.00 71 1019.6
20260901223900 90 178 0.0 0.0 0.00 0.00 0.00 70 1019.6
20260901223355 91 178 0.0 0.0 0.00 0.00 0.00 63 1019.8
20260901222851 91 177 0.0 0.0 0.00 0.00 0.00 56 1019.6
20260901222347 91 178 0.0 0.0 0.00 0.00 0.00 56 1019.6
20260901221843 91 177 0.0 0.0 0.00 0.00 0.00 53 1019.7
20260901221338 91 177 0.0 0.0 0.00 0.00 0.00 49 1019.5
20260901220838 91 173 0.0 0.0 0.00 0.00 0.00 49 1019.9
20260901220337 92 175 0.0 0.0 0.00 0.00 0.00 50 1019.7
20260901215836 92 176 0.0 0.0 0.00 0.00 0.00 49 1019.7
20260901215335 92 177 0.0 0.0 0.00 0.00 0.00 49 1019.8
20260901214834 92 177 0.0 0.0 0.00 0.00 0.00 49 1019.7
20260901214333 93 177 0.0 0.0 0.00 0.00 0.00 48 1019.7
20260901213827 92 178 0.0 0.0 0.00 0.00 0.00 46 1019.7
20260901213327 92 172 0.0 0.0 0.00 0.00 0.00 44 1019.5
20260901212822 92 167 0.0 0.0 0.00 0.00 0.00 49 1020.0
20260901212318 92 178 0.0 0.0 0.00 0.00 0.00 49 1019.8
20260901211814 93 168 0.0 0.0 0.00 0.00 0.00 49 1020.0
20260901211310 93 175 0.0 0.0 0.00 0.00 0.00 49 1019.9
20260901210805 94 176 0.0 0.0 0.00 0.00 0.00 47 1020.1
20260901210301 95 176 0.0 0.0 0.00 0.00 0.00 48 1020.0
20260901205757 95 178 0.0 0.0 0.00 0.00 0.00 47 1020.3
20260901205256 94 178 0.0 0.0 0.00 0.00 0.00 46 1020.2
20260901204751 94 176 0.0 0.0 0.00 0.00 0.00 47 1020.3
20260901204242 95 176 0.0 0.0 0.00 0.00 0.00 46 1020.0
20260901203736 94 178 0.0 0.0 0.00 0.00 0.00 47 1020.4
20260901203231 93 177 0.0 0.0 0.00 0.00 0.00 54 1020.4
20260901202730 93 176 0.0 0.0 0.00 0.00 0.00 52 1020.4
20260901202226 95 177 0.0 0.0 0.00 0.00 0.00 50 1020.6
20260901201721 95 179 0.0 0.0 0.00 0.00 0.00 54 1020.5
20260901201220 94 178 0.0 0.0 0.00 0.00 0.00 53 1020.5
20260901200720 93 178 0.0 0.0 0.00 0.00 0.00 54 1020.7
20260901200215 93 177 0.0 0.0 0.00 0.00 0.00 55 1020.7
20260901195708 93 174 0.0 0.0 0.00 0.00 0.00 55 1020.8
20260901195202 92 175 0.0 0.0 0.00 0.00 0.00 57 1020.8
20260901194658 93 172 0.0 0.0 0.00 0.00 0.00 60 1020.7
20260901194152 93 177 0.0 0.0 0.00 0.00 0.00 57 1020.9
20260901193648 93 176 0.0 0.0 0.00 0.00 0.00 59 1020.8
20260901193142 92 176 0.0 0.0 0.00 0.00 0.00 58 1021.1
20260901192637 92 174 0.0 0.0 0.00 0.00 0.00 56 1021.2
20260901192132 91 176 0.0 0.0 0.00 0.00 0.00 57 1021.1
20260901191628 91 172 0.0 0.0 0.00 0.00 0.00 57 1021.1
20260901191124 92 171 0.0 0.0 0.00 0.00 0.00 58 1021.2
20260901190620 92 174 0.0 0.0 0.00 0.00 0.00 55 1021.3
20260901190119 92 171 0.0 0.0 0.00 0.00 0.00 56 1021.3
20260901185618 92 177 0.0 0.0 0.00 0.00 0.00 57 1021.4
20260901185116 92 175 0.0 0.0 0.00 0.00 0.00 55 1021.4
20260901184612 91 175 0.0 0.0 0.00 0.00 0.00 56 1021.6
20260901184107 91 176 0.0 0.0 0.00 0.00 0.00 60 1021.6
20260901183602 91 174 0.0 0.0 0.00 0.00 0.00 62 1021.7
20260901183058 91 173 0.0 0.0 0.00 0.00 0.00 62 1021.5
20260901182553 91 174 0.0 0.0 0.00 0.00 0.00 61 1021.8
20260901182047 91 171 0.0 0.0 0.00 0.00 0.00 62 1022.0
20260901181547 90 170 0.0 0.0 0.00 0.00 0.00 66 1021.9
20260901181046 90 175 0.0 0.0 0.00 0.00 0.00 65 1021.8
20260901180545 90 173 0.0 0.0 0.00 0.00 0.00 62 1022.1
20260901180040 90 170 0.0 0.0 0.00 0.00 0.00 62 1022.0
20260901175534 90 176 0.0 0.0 0.00 0.00 0.00 62 1022.1
20260901175029 90 173 0.0 0.0 0.00 0.00 0.00 61 1022.1
20260901174525 91 172 0.0 0.0 0.00 0.00 0.00 61 1021.9
20260901174020 90 172 0.0 0.0 0.00 0.00 0.00 61 1022.0
20260901173514 90 171 0.0 0.0 0.00 0.00 0.00 64 1022.2
20260901173010 90 174 0.0 0.0 0.00 0.00 0.00 61 1022.3
20260901172505 90 173 0.0 0.0 0.00 0.00 0.00 62 1022.0
20260901172003 89 172 0.0 0.0 0.00 0.00 0.00 63 1022.2
20260901171502 90 174 0.0 0.0 0.00 0.00 0.00 63 1022.3
20260901171001 90 174 0.0 0.0 0.00 0.00 0.00 64 1022.4
20260901170456 89 175 0.0 0.0 0.00 0.00 0.00 63 1022.5
20260901165955 90 174 0.0 0.0 0.00 0.00 0.00 65 1022.5
20260901165451 90 173 0.0 0.0 0.00 0.00 0.00 64 1022.5
20260901164947 90 174 0.0 0.0 0.00 0.00 0.00 64 1022.5
20260901164442 89 175 0.0 0.0 0.00 0.00 0.00 64 1022.7
20260901163937 89 175 0.0 0.0 0.00 0.00 0.00 65 1022.8
20260901163432 89 175 0.0 0.0 0.00 0.00 0.00 64 1022.7
20260901162931 89 175 0.0 0.0 0.00 0.00 0.00 64 1022.9
20260901162426 88 176 0.0 0.0 0.00 0.00 0.00 66 1022.7
20260901161920 88 174 0.0 0.0 0.00 0.00 0.00 66 1022.7
20260901161419 88 171 0.0 0.0 0.00 0.00 0.00 66 1023.1
20260901160914 88 174 0.0 0.0 0.00 0.00 0.00 68 1022.8
20260901160411 87 174 0.0 0.0 0.00 0.00 0.00 70 1022.8
20260901155909 87 168 0.0 0.0 0.00 0.00 0.00 73 1023.3
20260901155404 87 174 0.0 0.0 0.00 0.00 0.00 71 1023.1
20260901154901 86 174 0.0 0.0 0.00 0.00 0.00 73 1023.2
20260901154400 86 168 0.0 0.0 0.00 0.00 0.00 74 1023.2
20260901153854 85 174 0.0 0.0 0.00 0.00 0.00 75 1023.0
20260901153354 84 175 0.0 0.0 0.00 0.00 0.00 77 1023.1
20260901152853 84 174 0.0 0.0 0.00 0.00 0.00 79 1023.5
20260901152348 83 169 0.0 0.0 0.00 0.00 0.00 80 1023.0
20260901151843 83 170 0.0 0.0 0.00 0.00 0.00 82 1023.0
20260901151337 82 165 0.0 0.0 0.00 0.00 0.00 83 1023.0
20260901150838 82 172 0.0 0.0 0.00 0.00 0.00 83 1023.1
20260901150335 82 167 0.0 0.0 0.00 0.00 0.00 83 1023.3
20260901145833 82 164 0.0 0.0 0.00 0.00 0.00 84 1023.1
20260901145332 81 158 0.0 0.0 0.00 0.00 0.00 84 1023.3
20260901144827 81 163 0.0 0.0 0.00 0.00 0.00 87 1023.1
20260901144323 81 164 0.0 0.0 0.00 0.00 0.00 86 1023.4
20260901143819 80 169 0.0 0.0 0.00 0.00 0.00 89 1023.1
20260901143315 80 172 0.0 0.0 0.00 0.00 0.00 88 1023.1
20260901142811 80 159 0.0 0.0 0.00 0.00 0.00 89 1023.1
20260901142310 80 161 0.0 0.0 0.00 0.00 0.00 90 1023.1
20260901141806 80 186 0.0 0.0 0.00 0.00 0.00 90 1023.2
20260901141301 80 163 0.0 0.0 0.00 0.00 0.00 90 1023.2
20260901140759 80 169 0.0 0.0 0.00 0.00 0.00 92 1023.1
20260901140258 80 175 0.0 0.0 0.00 0.00 0.00 92 1023.1
20260901135753 80 174 0.0 0.0 0.00 0.00 0.00 92 1023.2
20260901135247 79 176 0.0 0.0 0.00 0.00 0.00 93 1023.0
20260901134743 79 170 0.0 0.0 0.00 0.00 0.00 93 1023.1
20260901134243 79 169 0.0 0.0 0.00 0.00 0.00 93 1023.0
20260901133742 79 177 0.0 0.0 0.00 0.00 0.00 93 1023.0
20260901133236 79 170 0.0 0.0 0.00 0.00 0.00 93 1023.2
20260901132734 79 163 0.0 0.0 0.00 0.00 0.00 93 1023.1
20260901132230 79 169 0.0 0.0 0.00 0.00 0.00 94 1023.1
20260901131724 79 176 0.0 0.0 0.00 0.00 0.00 94 1023.1
20260901131224 78 172 0.0 0.0 0.00 0.00 0.00 94 1023.0
20260901130719 78 173 0.0 0.0 0.00 0.00 0.00 94 1023.1
20260901130218 78 169 0.0 0.0 0.00 0.00 0.00 94 1023.2
20260901125711 78 168 0.0 0.0 0.00 0.00 0.00 94 1022.8
20260901125206 78 163 0.0 0.0 0.00 0.00 0.00 95 1023.1
20260901124701 78 170 0.0 0.0 0.00 0.00 0.00 95 1022.8
20260901124200 78 177 0.0 0.0 0.00 0.00 0.00 95 1022.7
20260901123655 78 174 0.0 0.0 0.00 0.00 0.00 96 1022.9
20260901123150 77 176 0.0 0.0 0.00 0.00 0.00 96 1022.8
20260901122648 77 180 0.0 0.0 0.00 0.00 0.00 97 1023.1
20260901122143 77 176 0.0 0.0 0.00 0.00 0.00 98 1022.9
20260901121637 76 178 0.0 0.0 0.00 0.00 0.00 98 1022.7
20260901121132 76 179 0.0 0.0 0.00 0.00 0.00 99 1022.6
20260901120626 76 179 0.0 0.0 0.00 0.00 0.00 99 1022.6
20260901120121 76 183 0.0 0.0 0.00 0.00 0.00 99 1022.6
20260901115617 76 180 0.0 0.0 0.00 0.00 0.00 99 1022.4
20260901115114 75 175 0.0 0.0 0.00 0.00 0.00 99 1022.5
20260901114610 75 183 0.0 0.0 0.00 0.00 0.00 99 1022.5
20260901114108 75 179 0.0 0.0 0.00 0.00 0.00 99 1022.4
20260901113607 74 183 0.0 0.0 0.00 0.00 0.00 99 1022.3